TimePDT,TemperatureF,Dew PointF,Humidity,Sea Level PressureIn,VisibilityMPH,Wind Direction,Wind SpeedMPH,Gust SpeedMPH,PrecipitationIn,Events,Conditions,WindDirDegrees,DateUTC
12:15 AM,53.6,48.2,82,29.82,10.0,Calm,Calm,-,N/A,,Clear,0,2013-09-20 07:15:00
12:35 AM,53.6,48.2,82,29.82,10.0,Calm,Calm,-,N/A,,Clear,0,2013-09-20 07:35:00
12:55 AM,53.6,48.2,82,29.81,10.0,Calm,Calm,-,N/A,,Clear,0,2013-09-20 07:55:00
1:15 AM,53.6,48.2,82,29.81,10.0,Calm,Calm,-,N/A,,Clear,0,2013-09-20 08:15:00
1:35 AM,51.8,48.2,88,29.81,10.0,Calm,Calm,-,N/A,,Clear,0,2013-09-20 08:35:00
1:55 AM,51.8,48.2,88,29.81,10.0,Calm,Calm,-,N/A,,Clear,0,2013-09-20 08:55:00
2:15 AM,51.8,48.2,88,29.80,10.0,Calm,Calm,-,N/A,,Clear,0,2013-09-20 09:15:00
2:35 AM,51.8,46.4,82,29.79,10.0,Calm,Calm,-,N/A,,Clear,0,2013-09-20 09:35:00
2:55 AM,51.8,46.4,82,29.79,10.0,Calm,Calm,-,N/A,,Clear,0,2013-09-20 09:55:00
3:15 AM,51.8,46.4,82,29.79,10.0,Calm,Calm,-,N/A,,Clear,0,2013-09-20 10:15:00
3:35 AM,50.0,46.4,87,29.78,10.0,Calm,Calm,-,N/A,,Clear,0,2013-09-20 10:35:00
3:55 AM,50.0,46.4,87,29.78,10.0,Calm,Calm,-,N/A,,Clear,0,2013-09-20 10:55:00
4:15 AM,50.0,46.4,87,29.78,10.0,Calm,Calm,-,N/A,,Mostly Cloudy,0,2013-09-20 11:15:00
4:35 AM,50.0,46.4,87,29.77,10.0,Calm,Calm,-,N/A,,Scattered Clouds,0,2013-09-20 11:35:00
4:55 AM,48.2,44.6,87,29.77,10.0,Calm,Calm,-,N/A,,Partly Cloudy,0,2013-09-20 11:55:00
5:15 AM,48.2,46.4,93,29.76,10.0,Calm,Calm,-,N/A,,Mostly Cloudy,0,2013-09-20 12:15:00
5:35 AM,48.2,46.4,93,29.76,10.0,Calm,Calm,-,N/A,,Overcast,0,2013-09-20 12:35:00
5:55 AM,48.2,46.4,93,29.75,10.0,Calm,Calm,-,N/A,,Mostly Cloudy,0,2013-09-20 12:55:00
6:15 AM,48.2,46.4,93,29.74,10.0,Calm,Calm,-,N/A,,Partly Cloudy,0,2013-09-20 13:15:00
6:35 AM,48.2,44.6,87,29.74,10.0,Calm,Calm,-,N/A,,Mostly Cloudy,0,2013-09-20 13:35:00
6:55 AM,50.0,46.4,87,29.73,5.0,Calm,Calm,-,N/A,,Overcast,0,2013-09-20 13:55:00
7:15 AM,48.2,46.4,93,29.74,0.2,Calm,Calm,-,N/A,,Overcast,0,2013-09-20 14:15:00
7:35 AM,50.0,46.4,87,29.75,0.2,Calm,Calm,-,N/A,,Overcast,0,2013-09-20 14:35:00
7:55 AM,51.8,46.4,82,29.74,0.5,Calm,Calm,-,N/A,,Overcast,0,2013-09-20 14:55:00
8:15 AM,51.8,48.2,88,29.73,6.0,Calm,Calm,-,N/A,,Scattered Clouds,0,2013-09-20 15:15:00
8:35 AM,51.8,48.2,88,29.73,10.0,Calm,Calm,-,N/A,,Clear,0,2013-09-20 15:35:00
8:55 AM,55.4,48.2,77,29.73,10.0,SSE,8.1,-,N/A,,Clear,150,2013-09-20 15:55:00
9:15 AM,55.4,48.2,77,29.73,10.0,SE,4.6,-,N/A,,Clear,140,2013-09-20 16:15:00
9:35 AM,57.2,50.0,77,29.72,10.0,SSE,4.6,-,N/A,,Clear,150,2013-09-20 16:35:00
9:55 AM,59.0,50.0,72,29.71,10.0,SE,6.9,-,N/A,,Clear,140,2013-09-20 16:55:00
10:15 AM,59.0,50.0,72,29.71,10.0,SSE,8.1,-,N/A,,Clear,160,2013-09-20 17:15:00
10:35 AM,60.8,50.0,68,29.71,10.0,SE,4.6,-,N/A,,Clear,140,2013-09-20 17:35:00
10:55 AM,62.6,50.0,63,29.70,10.0,SSE,5.8,-,N/A,,Clear,160,2013-09-20 17:55:00
11:15 AM,62.6,50.0,63,29.70,10.0,South,6.9,-,N/A,,Clear,170,2013-09-20 18:15:00
11:35 AM,64.4,51.8,64,29.70,10.0,SSE,11.5,-,N/A,,Clear,160,2013-09-20 18:35:00
11:55 AM,64.4,51.8,64,29.69,10.0,SSE,10.4,-,N/A,,Clear,160,2013-09-20 18:55:00
12:15 PM,64.4,50.0,59,29.70,10.0,South,9.2,-,N/A,,Clear,180,2013-09-20 19:15:00
12:35 PM,66.2,51.8,60,29.69,10.0,South,10.4,-,N/A,,Clear,170,2013-09-20 19:35:00
12:55 PM,69.8,51.8,53,29.68,10.0,SSE,13.8,-,N/A,,Clear,160,2013-09-20 19:55:00
1:15 PM,71.6,53.6,53,29.68,10.0,South,13.8,17.3,N/A,,Clear,180,2013-09-20 20:15:00
1:35 PM,69.8,51.8,53,29.68,10.0,South,12.7,17.3,N/A,,Clear,170,2013-09-20 20:35:00
1:55 PM,69.8,51.8,53,29.67,10.0,South,6.9,18.4,N/A,,Clear,170,2013-09-20 20:55:00
2:15 PM,71.6,51.8,50,29.67,10.0,South,11.5,-,N/A,,Partly Cloudy,170,2013-09-20 21:15:00
2:35 PM,71.6,51.8,50,29.67,10.0,South,11.5,17.3,N/A,,Mostly Cloudy,170,2013-09-20 21:35:00
2:55 PM,69.8,51.8,53,29.69,10.0,SW,6.9,-,N/A,,Overcast,230,2013-09-20 21:55:00
3:15 PM,66.2,53.6,64,29.70,10.0,West,5.8,-,N/A,,Overcast,280,2013-09-20 22:15:00
3:35 PM,64.4,53.6,68,29.70,10.0,WNW,4.6,-,N/A,,Overcast,290,2013-09-20 22:35:00
3:55 PM,62.6,55.4,77,29.70,7.0,NNE,4.6,-,N/A,,Overcast,20,2013-09-20 22:55:00
4:15 PM,62.6,55.4,77,29.70,10.0,Calm,Calm,-,N/A,,Mostly Cloudy,0,2013-09-20 23:15:00
4:35 PM,62.6,55.4,77,29.70,10.0,Calm,Calm,-,N/A,,Overcast,0,2013-09-20 23:35:00
4:55 PM,62.6,55.4,77,29.69,10.0,Calm,Calm,-,N/A,,Overcast,0,2013-09-20 23:55:00
5:15 PM,60.8,57.2,88,29.71,10.0,Calm,Calm,-,0.01,,Overcast,0,2013-09-21 00:15:00
5:35 PM,62.6,57.2,82,29.72,10.0,Calm,Calm,-,0.02,,Mostly Cloudy,0,2013-09-21 00:35:00
5:55 PM,62.6,57.2,82,29.71,10.0,Calm,Calm,-,0.03,,Overcast,0,2013-09-21 00:55:00
6:15 PM,60.8,57.2,88,29.70,10.0,Calm,Calm,-,N/A,,Overcast,0,2013-09-21 01:15:00
6:35 PM,60.8,57.2,88,29.70,10.0,South,3.5,-,N/A,,Overcast,190,2013-09-21 01:35:00
6:55 PM,60.8,57.2,88,29.71,10.0,SSE,3.5,-,N/A,,Overcast,160,2013-09-21 01:55:00
7:15 PM,60.8,57.2,88,29.70,10.0,Calm,Calm,-,N/A,,Overcast,0,2013-09-21 02:15:00
7:35 PM,60.8,55.4,82,29.69,10.0,SE,4.6,-,N/A,,Overcast,140,2013-09-21 02:35:00
7:55 PM,60.8,53.6,77,29.70,10.0,South,5.8,-,N/A,,Overcast,170,2013-09-21 02:55:00
8:15 PM,60.8,53.6,77,29.70,10.0,SSE,5.8,-,N/A,,Overcast,160,2013-09-21 03:15:00
8:35 PM,60.8,53.6,77,29.70,10.0,SSE,5.8,-,N/A,,Overcast,150,2013-09-21 03:35:00
8:55 PM,60.8,53.6,77,29.70,10.0,SSE,4.6,-,N/A,,Overcast,150,2013-09-21 03:55:00
9:15 PM,60.8,53.6,77,29.70,10.0,SSE,4.6,-,N/A,,Mostly Cloudy,150,2013-09-21 04:15:00
9:35 PM,60.8,53.6,77,29.70,10.0,SSE,3.5,-,N/A,,Partly Cloudy,160,2013-09-21 04:35:00
9:55 PM,59.0,53.6,82,29.71,10.0,Calm,Calm,-,N/A,,Mostly Cloudy,0,2013-09-21 04:55:00
10:15 PM,59.0,53.6,82,29.71,10.0,Calm,Calm,-,N/A,,Overcast,0,2013-09-21 05:15:00
10:35 PM,60.8,53.6,77,29.72,10.0,Calm,Calm,-,N/A,,Overcast,0,2013-09-21 05:35:00
10:55 PM,59.0,53.6,82,29.71,10.0,Calm,Calm,-,N/A,,Overcast,0,2013-09-21 05:55:00
11:15 PM,59.0,53.6,82,29.72,10.0,Calm,Calm,-,N/A,,Overcast,0,2013-09-21 06:15:00
11:35 PM,59.0,55.4,88,29.71,10.0,Calm,Calm,-,N/A,,Overcast,0,2013-09-21 06:35:00
11:55 PM,59.0,55.4,88,29.71,10.0,Calm,Calm,-,N/A,,Overcast,0,2013-09-21 06:55:00